Weather observations for the past three days for
Charlevoix, Charlevoix Municipal Airport
| Date | Time (edt) | Wind (kph) | Vis. (km) | Weather | Sky Cond. | Temperature (ºC) | Relative Humidity | Wind Chill (°C) | Heat Index (°C) | Pressure | Precipitation (cm) | ||||||
|---|---|---|---|---|---|---|---|---|---|---|---|---|---|---|---|---|---|
| Air | Dwpt | 6 hour | altimeter (cm) | sea level (mb) | 1 hr | 3 hr | 6 hr | ||||||||||
| Max. | Min. | ||||||||||||||||
| 04 | 23:35 | NE 15 | 16.09 | Overcast | OVC046 | 9 | 3 | 66% | 7 | 74.9 | 0.0 | ||||||
| 04 | 23:15 | NE 11 | 16.09 | Overcast | BKN044 OVC110 | 9 | 5 | 76% | 8 | 74.88 | 0.0 | ||||||
| 04 | 22:55 | NE 9 | 16.09 | Overcast | OVC110 | 9 | 6 | 82% | 8 | 74.88 | 0.0 | ||||||
| 04 | 22:35 | NE 11 | 16.09 | Overcast | OVC100 | 8 | 6 | 87% | 6 | 74.8 | 0.0 | ||||||
| 04 | 22:15 | NE 7 | 16.09 | Overcast | OVC090 | 7 | 5 | 87% | 6 | 74.8 | 0.0 | ||||||
| 04 | 21:55 | N 7 | 16.09 | Light Rain | OVC090 | 6 | 4 | 87% | 5 | 74.8 | 0.0 | ||||||
| 04 | 21:35 | NE 13 | 16.09 | Light Drizzle | FEW070 OVC090 | 9 | 6 | 82% | 7 | 74.73 | 0.0 | ||||||
| 04 | 21:15 | N 9 | 16.09 | Light Rain | FEW060 SCT070 OVC080 | 7 | 5 | 87% | 5 | 74.73 | 0.0 | ||||||
| 04 | 20:55 | Vrbl 2 | 14.48 | Light Drizzle | FEW050 BKN080 OVC090 | 8 | 6 | 87% | 74.7 | 0.0 | 0.03 | ||||||
| 04 | 20:35 | N 2 | 16.09 | Overcast | FEW070 OVC080 | 8 | 5 | 82% | 74.65 | 0.0 | |||||||
| 04 | 20:15 | Vrbl 4 | 14.48 | Light Rain | BKN070 OVC090 | 7 | 5 | 87% | 74.68 | 0.0 | |||||||
| 04 | 19:55 | NW 13 | 16.09 | Light Rain | BKN070 OVC080 | 7 | 4 | 22.4 | 6.4 | 81% | 5 | 74.75 | 0.0 | 0.05 | |||
| 04 | 19:35 | NW 17 | 16.09 | Light Rain | BKN070 OVC085 | 7 | 4 | 81% | 4 | 74.7 | 0.0 | ||||||
| 04 | 19:15 | NW 31 G 41 | 16.09 | Light Rain | BKN070 OVC080 | 10 | 5 | 71% | 7 | 74.63 | 0.0 | ||||||
| 04 | 18:55 | SW 28 G 46 | 12.87 | Light Rain | FEW050 SCT065 OVC080 | 16 | 8 | 59% | 74.5 | 0.0 | 0.08 | ||||||
| 04 | 18:35 | SW 30 G 37 | 16.09 | Light Rain | OVC080 | 19 | 6 | 43% | 74.47 | 0.0 | |||||||
| 04 | 18:15 | SW 24 G 35 | 16.09 | Light Rain | FEW070 OVC080 | 19 | 5 | 40% | 74.45 | 0.0 | |||||||
| 04 | 17:55 | SW 28 G 43 | 16.09 | Overcast | OVC090 | 20 | 4 | 35% | 74.45 | 0.0 | |||||||
| 04 | 17:35 | SW 28 G 44 | 16.09 | Partly Cloudy | SCT090 SCT120 | 21 | 4 | 33% | 74.45 | 0.0 | |||||||
| 04 | 17:15 | SW 28 G 50 | 16.09 | A Few Clouds | FEW100 | 22 | 3 | 29% | 74.42 | 0.0 | |||||||
| 04 | 16:55 | SW 33 G 48 | 16.09 | A Few Clouds and Breezy | FEW080 | 22 | 3 | 29% | 74.42 | 0.0 | |||||||
| 04 | 16:35 | SW 24 G 41 | 16.09 | Overcast | OVC080 | 21 | 4 | 33% | 74.45 | 0.0 | |||||||
| 04 | 16:15 | SW 35 G 48 | 16.09 | Overcast and Breezy | OVC090 | 20 | 3 | 33% | 74.45 | 0.0 | |||||||
| 04 | 15:55 | SW 33 G 56 | 16.09 | Mostly Cloudy and Breezy | BKN090 BKN120 | 21 | 3 | 31% | 74.45 | 0.0 | |||||||
| 04 | 15:35 | SW 30 G 43 | 16.09 | Mostly Cloudy | FEW090 BKN120 | 22 | 3 | 29% | 74.45 | 0.0 | |||||||
| 04 | 15:15 | SW 33 G 50 | 16.09 | Mostly Cloudy and Breezy | BKN120 | 21 | 2 | 29% | 74.47 | 0.0 | |||||||
| 04 | 14:55 | SW 31 G 43 | 16.09 | Partly Cloudy | SCT110 | 20 | 3 | 33% | 74.47 | 0.0 | |||||||
| 04 | 14:35 | SW 28 G 46 | 16.09 | Mostly Cloudy | BKN110 | 21 | 2 | 29% | 74.47 | 0.0 | |||||||
| 04 | 14:15 | SW 35 G 56 | 16.09 | Mostly Cloudy and Breezy | BKN100 | 21 | 2 | 29% | 74.47 | 0.0 | |||||||
| 04 | 13:55 | SW 35 G 50 | 16.09 | Mostly Cloudy and Breezy | BKN100 | 21 | 2 | 22.5 | 8.2 | 29% | 74.47 | 0.0 | |||||
| 04 | 13:35 | SW 33 G 56 | 16.09 | A Few Clouds and Breezy | FEW100 | 22 | 2 | 27% | 74.47 | 0.0 | |||||||
| 04 | 13:15 | SW 26 G 52 | 16.09 | Fair | CLR | 22 | 3 | 29% | 74.52 | 0.0 | |||||||
| 04 | 12:55 | SW 33 G 44 | 16.09 | Fair and Breezy | CLR | 22 | 3 | 29% | 74.52 | 0.0 | |||||||
| 04 | 12:35 | SW 33 G 50 | 16.09 | Fair and Breezy | CLR | 21 | 3 | 31% | 74.57 | 0.0 | |||||||
| 04 | 12:15 | S 37 G 50 | 16.09 | Fair and Breezy | CLR | 20 | 3 | 33% | 74.57 | 0.0 | |||||||
| 04 | 11:55 | SW 24 G 52 | 16.09 | Fair | CLR | 19 | 3 | 35% | 74.6 | 0.0 | |||||||
| 04 | 11:35 | S 31 G 48 | 16.09 | Fair | CLR | 19 | 3 | 35% | 74.65 | 0.0 | |||||||
| 04 | 11:15 | SW 28 G 46 | 16.09 | Fair | CLR | 18 | 4 | 40% | 74.68 | 0.0 | |||||||
| 04 | 10:55 | S 26 G 39 | 16.09 | Fair | CLR | 17 | 4 | 42% | 74.7 | 0.0 | |||||||
| 04 | 10:35 | SW 24 G 37 | 16.09 | Fair | CLR | 16 | 4 | 45% | 74.73 | 0.0 | |||||||
| 04 | 10:15 | S 22 G 37 | 16.09 | Fair | CLR | 15 | 5 | 51% | 74.73 | 0.0 | |||||||
| 04 | 09:55 | S 17 G 33 | 16.09 | Fair | CLR | 15 | 5 | 51% | 74.75 | 0.0 | |||||||
| 04 | 09:35 | S 22 G 33 | 16.09 | Fair | CLR | 14 | 5 | 55% | 74.78 | 0.0 | |||||||
| 04 | 09:15 | S 15 | 16.09 | Fair | CLR | 13 | 6 | 63% | 74.8 | 0.0 | |||||||
| 04 | 08:55 | S 17 | 16.09 | Fair | CLR | 12 | 6 | 67% | 74.83 | 0.0 | |||||||
| 04 | 08:35 | S 19 | 16.09 | Fair | CLR | 11 | 6 | 72% | 74.83 | 0.0 | |||||||
| 04 | 08:15 | S 15 | 16.09 | Fair | CLR | 9 | 5 | 76% | 7 | 74.85 | 0.0 | ||||||
| 04 | 07:55 | S 15 | 16.09 | Fair | CLR | 8 | 5 | 8.2 | 2.9 | 82% | 6 | 74.88 | 0.0 | ||||
| 04 | 07:35 | S 15 | 16.09 | Fair | CLR | 8 | 5 | 82% | 6 | 74.88 | 0.0 | ||||||
| 04 | 07:15 | SE 13 | 16.09 | Fair | CLR | 8 | 5 | 82% | 6 | 74.9 | 0.0 | ||||||
| 04 | 06:55 | S 13 | 16.09 | Fair | CLR | 7 | 5 | 87% | 5 | 74.9 | 0.0 | ||||||
| 04 | 06:35 | S 11 | 16.09 | Fair | CLR | 7 | 5 | 87% | 5 | 74.93 | 0.0 | ||||||
| 04 | 06:15 | S 9 | 16.09 | Fair | CLR | 7 | 5 | 87% | 5 | 74.93 | 0.0 | ||||||
| 04 | 05:55 | SE 13 | 16.09 | Fair | CLR | 7 | 5 | 87% | 5 | 74.96 | 0.0 | ||||||
| 04 | 05:35 | S 11 | 16.09 | Fair | CLR | 6 | 5 | 93% | 4 | 74.96 | 0.0 | ||||||
| 04 | 05:15 | SE 13 | 16.09 | Fair | CLR | 6 | 5 | 93% | 4 | 74.98 | 0.0 | ||||||
| 04 | 04:55 | SE 9 | 16.09 | Fair | CLR | 5 | 5 | 100% | 3 | 75.01 | 0.0 | ||||||
| 04 | 04:35 | SE 9 | 16.09 | Fair | CLR | 5 | 5 | 100% | 3 | 75.01 | 0.0 | ||||||
| 04 | 04:15 | SE 6 | 16.09 | Fair | CLR | 4 | 4 | 100% | 75.03 | 0.0 | |||||||
| 04 | 03:55 | SE 9 | 14.48 | Fair | CLR | 3 | 3 | 100% | 1 | 75.06 | 0.0 | ||||||
| 04 | 03:35 | SE 7 | 14.48 | Fair | CLR | 4 | 4 | 100% | 2 | 75.08 | 0.0 | ||||||
| 04 | 03:15 | SE 9 | 16.09 | Fair | CLR | 4 | 4 | 100% | 2 | 75.11 | 0.0 | ||||||
| 04 | 02:55 | SE 7 | 14.48 | Fair | CLR | 4 | 4 | 100% | 2 | 75.11 | 0.0 | ||||||
| 04 | 02:35 | SE 4 | 14.48 | Fair | CLR | 4 | 3 | 93% | 75.13 | 0.0 | |||||||
| 04 | 02:15 | S 7 | 14.48 | Fair | CLR | 3 | 3 | 100% | 1 | 75.16 | 0.0 | ||||||
| 04 | 01:55 | S 4 | 16.09 | Fair | CLR | 4 | 4 | 11.1 | 3.4 | 100% | 75.18 | 0.0 | |||||
| 04 | 01:35 | W 2 | 12.87 | Fair | CLR | 4 | 4 | 100% | 75.18 | 0.0 | |||||||
| 04 | 01:15 | Calm | 16.09 | Fair | CLR | 5 | 4 | 93% | 75.18 | 0.0 | |||||||
| 04 | 00:55 | SW 6 | 16.09 | Fair | CLR | 4 | 4 | 100% | 75.18 | 0.0 | |||||||
| 04 | 00:35 | S 9 | 11.27 | Fair | CLR | 4 | 4 | 100% | 2 | 75.21 | 0.0 | ||||||
| 04 | 00:15 | S 4 | 16.09 | Fair | CLR | 5 | 5 | 100% | 75.21 | 0.0 | |||||||
| 03 | 23:55 | SW 6 | 16.09 | Fair | CLR | 6 | 5 | 93% | 75.23 | 0.0 | |||||||
| 03 | 23:35 | NW 4 | 16.09 | Fair | CLR | 7 | 4 | 81% | 75.23 | 0.0 | |||||||
| 03 | 23:15 | NW 7 | 16.09 | Fair | CLR | 7 | 5 | 87% | 6 | 75.26 | 0.0 | ||||||
| 03 | 22:55 | W 13 | 16.09 | Fair | CLR | 7 | 5 | 87% | 5 | 75.26 | 0.0 | ||||||
| 03 | 22:35 | NW 6 | 16.09 | Partly Cloudy | SCT065 | 9 | 6 | 82% | 75.23 | 0.0 | |||||||
| 03 | 22:15 | Vrbl 4 | 16.09 | Mostly Cloudy | BKN065 | 9 | 7 | 87% | 75.21 | 0.0 | |||||||
| 03 | 21:55 | E 7 | 16.09 | Overcast | BKN070 OVC090 | 10 | 7 | 82% | 9 | 75.18 | 0.0 | ||||||
| 03 | 21:35 | Vrbl 4 | 16.09 | Overcast | OVC075 | 11 | 6 | 72% | 75.18 | 0.0 | |||||||
| 03 | 21:15 | SW 17 G 30 | 16.09 | Overcast | FEW070 BKN080 OVC120 | 11 | 7 | 77% | 75.13 | 0.0 | |||||||
| 03 | 20:55 | S 13 | 16.09 | Mostly Cloudy | FEW080 BKN110 | 10 | 7 | 82% | 8 | 75.13 | 0.0 | ||||||
| 03 | 20:35 | S 15 | 16.09 | Partly Cloudy | SCT110 | 10 | 7 | 82% | 8 | 75.13 | 0.0 | ||||||
| 03 | 20:15 | S 13 | 16.09 | Fair | CLR | 9 | 7 | 87% | 7 | 75.16 | 0.0 | ||||||
| 03 | 19:55 | S 15 | 16.09 | A Few Clouds | FEW035 FEW049 FEW120 | 9 | 7 | 16 | 7.6 | 87% | 7 | 75.18 | 0.0 | 0.33 | |||
| 03 | 19:35 | S 22 G 33 | 4.83 | Light Rain Fog/Mist | FEW035 BKN048 BKN110 | 8 | 7 | 93% | 5 | 75.13 | 0.0 | ||||||
| 03 | 19:15 | NW 33 G 52 | 11.27 | Rain and Breezy | SCT046 OVC055 | 9 | 6 | 82% | 5 | 75.31 | 0.0 | ||||||
| 03 | 18:55 | SW 15 | 16.09 | Light Rain | SCT055 BKN065 BKN100 | 13 | 7 | 67% | 75.18 | 0.0 | 0.03 | ||||||
| 03 | 18:35 | SW 22 G 35 | 16.09 | Overcast | OVC100 | 14 | 5 | 55% | 75.16 | 0.0 | |||||||
| 03 | 18:15 | S 30 G 43 | 16.09 | Overcast | OVC090 | 14 | 5 | 55% | 75.13 | 0.0 | |||||||
| 03 | 17:55 | SW 22 G 41 | 16.09 | Partly Cloudy | SCT085 SCT110 | 15 | 6 | 55% | 75.13 | 0.0 | |||||||
| 03 | 17:35 | SW 26 G 44 | 16.09 | A Few Clouds | FEW080 | 16 | 6 | 52% | 75.13 | 0.0 | |||||||
| 03 | 17:15 | S 31 G 39 | 16.09 | Partly Cloudy | FEW060 SCT070 SCT080 | 16 | 6 | 52% | 75.16 | 0.0 | |||||||
| 03 | 16:55 | S 20 G 35 | 16.09 | Overcast | FEW060 OVC070 | 14 | 6 | 59% | 75.18 | 0.0 | |||||||
| 03 | 16:35 | S 19 G 37 | 16.09 | Mostly Cloudy | BKN070 BKN090 BKN120 | 15 | 6 | 55% | 75.21 | 0.0 | |||||||
| 03 | 16:15 | SW 24 G 46 | 16.09 | Partly Cloudy | SCT100 SCT120 | 15 | 6 | 55% | 75.26 | 0.0 | |||||||
| 03 | 15:55 | S 22 G 35 | 16.09 | A Few Clouds | FEW100 | 13 | 5 | 59% | 75.29 | 0.0 | |||||||
| 03 | 15:35 | S 22 G 39 | 16.09 | Fair | CLR | 15 | 5 | 51% | 75.31 | 0.0 | |||||||
| 03 | 15:15 | S 24 G 39 | 16.09 | Fair | CLR | 15 | 4 | 48% | 75.34 | 0.0 | |||||||
| 03 | 14:55 | SW 26 G 41 | 16.09 | Fair | CLR | 15 | 4 | 48% | 75.34 | 0.0 | |||||||
| 03 | 14:35 | SW 26 G 35 | 16.09 | A Few Clouds | FEW085 | 14 | 5 | 55% | 75.36 | 0.0 | |||||||
| 03 | 14:15 | SW 28 | 16.09 | Mostly Cloudy | BKN085 | 14 | 5 | 55% | 75.36 | 0.0 | |||||||
| 03 | 13:55 | SW 20 G 31 | 16.09 | Mostly Cloudy | SCT055 BKN095 | 12 | 5 | 12 | 4.9 | 63% | 75.39 | 0.0 | |||||
| 03 | 13:35 | SW 22 | 16.09 | Overcast | OVC055 | 11 | 5 | 67% | 75.41 | 0.0 | |||||||
| 03 | 13:15 | SW 20 | 16.09 | Overcast | OVC065 | 10 | 5 | 71% | 8 | 75.41 | 0.0 | ||||||
| 03 | 12:55 | S 17 | 16.09 | Light Rain | FEW050 OVC065 | 9 | 6 | 82% | 7 | 75.44 | 0.0 | ||||||
| 03 | 12:35 | SW 19 G 26 | 16.09 | Light Rain | OVC050 | 9 | 6 | 82% | 7 | 75.46 | 0.0 | ||||||
| 03 | 12:15 | S 20 | 16.09 | Light Rain | OVC050 | 9 | 6 | 82% | 6 | 75.46 | 0.0 | ||||||
| 03 | 11:55 | SW 11 | 16.09 | Light Rain | FEW042 OVC050 | 9 | 6 | 82% | 8 | 75.46 | 0.0 | ||||||
| 03 | 11:35 | SW 17 | 16.09 | Light Rain | BKN044 OVC050 | 8 | 5 | 82% | 6 | 75.49 | 0.0 | ||||||
| 03 | 11:15 | SW 19 G 30 | 16.09 | Overcast | SCT044 OVC055 | 8 | 4 | 76% | 5 | 75.49 | 0.0 | ||||||
| 03 | 10:55 | SW 19 | 16.09 | Overcast | FEW046 OVC060 | 8 | 4 | 76% | 5 | 75.49 | 0.0 | ||||||
| 03 | 10:35 | SW 19 G 33 | 16.09 | Overcast | OVC050 | 8 | 4 | 76% | 5 | 75.49 | 0.0 | ||||||
| 03 | 10:15 | SW 20 G 30 | 16.09 | Overcast | BKN055 OVC070 | 8 | 3 | 71% | 5 | 75.49 | 0.0 | ||||||
| 03 | 09:55 | SW 24 G 33 | 16.09 | Overcast | SCT060 OVC075 | 9 | 2 | 62% | 6 | 75.49 | 0.0 | ||||||
| 03 | 09:35 | SW 19 G 26 | 16.09 | Light Rain | OVC050 | 8 | 2 | 66% | 5 | 75.51 | 0.0 | ||||||
| 03 | 09:15 | SW 15 | 16.09 | Overcast | BKN050 OVC070 | 8 | 2 | 66% | 6 | 75.51 | 0.0 | ||||||
| 03 | 08:55 | S 17 | 16.09 | Overcast | SCT060 OVC070 | 7 | 2 | 71% | 4 | 75.51 | 0.0 | ||||||
| 03 | 08:35 | S 11 | 16.09 | Light Drizzle | BKN060 OVC070 | 6 | 3 | 81% | 4 | 75.57 | 0.0 | ||||||
| 03 | 08:15 | Vrbl 6 | 16.09 | Light Rain | BKN050 OVC065 | 5 | 3 | 87% | 75.57 | 0.0 | |||||||
| 03 | 07:55 | SE 7 | 16.09 | Light Drizzle | BKN050 OVC065 | 6 | 1 | 5.7 | 0.1 | 71% | 5 | 75.57 | 0.0 | ||||
| 03 | 07:35 | S 15 | 16.09 | Light Rain | SCT050 BKN065 | 5 | 1 | 76% | 2 | 75.59 | 0.0 | ||||||
| 03 | 07:15 | SW 13 | 16.09 | Light Rain | BKN060 OVC085 | 5 | -1 | 66% | 2 | 75.59 | 0.0 | ||||||
| 03 | 06:55 | SE 7 | 16.09 | Overcast | OVC095 | 3 | -3 | 65% | 1 | 75.59 | 0.0 | ||||||
| 03 | 06:35 | SE 7 | 16.09 | Mostly Cloudy | BKN095 BKN120 | 3 | -3 | 65% | 1 | 75.62 | 0.0 | ||||||
| 03 | 06:15 | SE 9 | 16.09 | Mostly Cloudy | BKN095 BKN120 | 2 | -4 | 65% | -0 | 75.62 | 0.0 | ||||||
| 03 | 05:55 | SE 9 | 16.09 | Overcast | OVC110 | 2 | -4 | 65% | -0 | 75.62 | 0.0 | ||||||
| 03 | 05:35 | SE 9 | 16.09 | Partly Cloudy | SCT110 | 1 | -4 | 70% | -2 | 75.64 | 0.0 | ||||||
| 03 | 05:15 | SE 7 | 16.09 | Fair | CLR | 1 | -3 | 75% | -1 | 75.67 | 0.0 | ||||||
| 03 | 04:55 | E 7 | 16.09 | Fair | CLR | 2 | -5 | 60% | 0 | 75.69 | 0.0 | ||||||
| 03 | 04:35 | SE 9 | 16.09 | A Few Clouds | FEW100 | 2 | -5 | 60% | -0 | 75.69 | 0.0 | ||||||
| 03 | 04:15 | SE 7 | 16.09 | Mostly Cloudy | BKN100 | 2 | -4 | 65% | 0 | 75.72 | 0.0 | ||||||
| 03 | 03:55 | SE 7 | 16.09 | Overcast | OVC100 | 2 | -5 | 60% | 0 | 75.74 | 0.0 | ||||||
| 03 | 03:35 | SE 9 | 16.09 | Mostly Cloudy | SCT090 BKN110 | 1 | -5 | 65% | -2 | 75.77 | 0.0 | ||||||
| 03 | 03:15 | E 7 | 16.09 | Partly Cloudy | SCT090 | 1 | -6 | 60% | -1 | 75.77 | 0.0 | ||||||
| 03 | 02:55 | SE 7 | 16.09 | Fair | CLR | 1 | -4 | 70% | -1 | 75.79 | 0.0 | ||||||
| 03 | 02:35 | SE 7 | 16.09 | Fair | CLR | 1 | -4 | 70% | -1 | 75.82 | 0.0 | ||||||
| 03 | 02:15 | SE 7 | 16.09 | Fair | CLR | 1 | -4 | 70% | -1 | 75.84 | 0.0 | ||||||
| 03 | 01:55 | SE 9 | 16.09 | Partly Cloudy | SCT100 | 1 | -4 | 7.8 | 0.4 | 70% | -2 | 75.87 | 0.0 | ||||
| 03 | 01:35 | SE 7 | 16.09 | Mostly Cloudy | BKN100 | 1 | -3 | 75% | -1 | 75.9 | 0.0 | ||||||
| 03 | 01:15 | SE 7 | 16.09 | Fair | CLR | 1 | -3 | 75% | -1 | 75.92 | 0.0 | ||||||
| 03 | 00:55 | SE 6 | 16.09 | Fair | CLR | 2 | -3 | 70% | 75.92 | 0.0 | |||||||
| 03 | 00:35 | Vrbl 4 | 16.09 | Fair | CLR | 2 | -3 | 70% | 75.95 | 0.0 | |||||||
| 03 | 00:15 | SW 7 | 16.09 | Fair | CLR | 2 | -4 | 65% | 0 | 75.97 | 0.0 | ||||||
| 02 | 23:55 | NW 4 | 16.09 | Fair | CLR | 2 | -4 | 65% | 75.97 | 0.0 | |||||||
| 02 | 23:35 | SW 6 | 16.09 | Fair | CLR | 2 | -4 | 65% | 75.97 | 0.0 | |||||||
| 02 | 23:15 | SE 2 | 16.09 | Fair | CLR | 2 | -5 | 60% | 76 | 0.0 | |||||||
| 02 | 22:55 | SE 2 | 16.09 | Fair | CLR | 2 | -3 | 70% | 76 | 0.0 | |||||||
| 02 | 22:35 | E 4 | 16.09 | Fair | CLR | 3 | -5 | 56% | 76.02 | 0.0 | |||||||
| 02 | 22:15 | S 6 | 16.09 | Fair | CLR | 4 | -4 | 56% | 76.02 | 0.0 | |||||||
| 02 | 21:55 | S 9 | 16.09 | Fair | CLR | 5 | -7 | 42% | 3 | 76.02 | 0.0 | ||||||
| 02 | 21:35 | S 6 | 16.09 | Fair | CLR | 5 | -6 | 45% | 76.02 | 0.0 | |||||||
| 02 | 21:15 | S 6 | 16.09 | Fair | CLR | 6 | -7 | 39% | 76.02 | 0.0 | |||||||
| 02 | 20:55 | SW 6 | 16.09 | Fair | CLR | 6 | -7 | 39% | 76.02 | 0.0 | |||||||
| 02 | 20:35 | SW 7 | 16.09 | Fair | CLR | 6 | -7 | 39% | 5 | 76.02 | 0.0 | ||||||
| 02 | 20:15 | SW 9 | 16.09 | Fair | CLR | 7 | -8 | 34% | 5 | 76.02 | 0.0 | ||||||
| 02 | 19:55 | SW 13 | 16.09 | Fair | CLR | 8 | -8 | 9.4 | 6.5 | 32% | 6 | 76.02 | 0.0 | ||||
| 02 | 19:35 | W 15 | 16.09 | Fair | CLR | 8 | -8 | 32% | 6 | 76.05 | 0.0 | ||||||
| 02 | 19:15 | W 11 | 16.09 | Fair | CLR | 9 | -8 | 29% | 8 | 76.05 | 0.0 | ||||||
| 02 | 18:55 | W 17 | 16.09 | Fair | CLR | 9 | -7 | 32% | 7 | 76.07 | 0.0 | ||||||
| 02 | 18:35 | Vrbl 4 | 16.09 | Fair | CLR | 9 | -9 | 27% | 76.07 | 0.0 | |||||||
| 02 | 18:15 | Vrbl 9 | 16.09 | Fair | CLR | 9 | -9 | 27% | 8 | 76.07 | 0.0 | ||||||
| 02 | 17:55 | W 9 | 16.09 | Fair | CLR | 9 | -8 | 29% | 8 | 76.1 | 0.0 | ||||||
| 02 | 17:35 | W 13 | 16.09 | Fair | CLR | 9 | -8 | 29% | 7 | 76.12 | 0.0 | ||||||
| 02 | 17:15 | W 17 | 16.09 | Fair | CLR | 9 | -7 | 32% | 7 | 76.12 | 0.0 | ||||||
| 02 | 16:55 | W 20 | 16.09 | Fair | CLR | 8 | -7 | 34% | 5 | 76.15 | 0.0 | ||||||
| 02 | 16:35 | W 22 | 16.09 | Fair | CLR | 8 | -8 | 32% | 5 | 76.17 | 0.0 | ||||||
| 02 | 16:15 | W 20 | 16.09 | Fair | CLR | 8 | -8 | 32% | 5 | 76.17 | 0.0 | ||||||
| 02 | 15:55 | W 24 | 16.09 | Fair | CLR | 8 | -8 | 32% | 5 | 76.2 | 0.0 | ||||||
| 02 | 15:35 | W 22 | 16.09 | Fair | CLR | 8 | -8 | 32% | 5 | 76.23 | 0.0 | ||||||
| 02 | 15:15 | W 22 | 16.09 | Fair | CLR | 7 | -8 | 34% | 4 | 76.25 | 0.0 | ||||||
| 02 | 14:55 | W 20 | 16.09 | Fair | CLR | 7 | -8 | 34% | 4 | 76.25 | 0.0 | ||||||
| 02 | 14:35 | W 24 | 16.09 | Fair | CLR | 7 | -7 | 37% | 4 | 76.28 | 0.0 | ||||||
| 02 | 14:15 | W 24 | 16.09 | Fair | CLR | 7 | -7 | 37% | 4 | 76.28 | 0.0 | ||||||
| 02 | 13:55 | W 24 | 16.09 | Fair | CLR | 7 | -7 | 7.4 | 1.5 | 37% | 4 | 76.3 | 0.0 | ||||
| 02 | 13:35 | W 24 | 16.09 | Fair | CLR | 7 | -6 | 39% | 4 | 76.3 | 0.0 | ||||||
| 02 | 13:15 | W 26 | 16.09 | Fair | CLR | 6 | -5 | 46% | 2 | 76.3 | 0.0 | ||||||
| 02 | 12:55 | W 24 | 16.09 | Fair | CLR | 7 | -3 | 49% | 4 | 76.3 | 0.0 | ||||||
| 02 | 12:35 | W 24 | 16.09 | Fair | CLR | 6 | -3 | 53% | 2 | 76.3 | 0.0 | ||||||
| 02 | 12:15 | W 20 | 16.09 | Fair | CLR | 6 | -2 | 57% | 3 | 76.33 | 0.0 | ||||||
| 02 | 11:55 | W 20 | 16.09 | Fair | CLR | 6 | -2 | 57% | 3 | 76.33 | 0.0 | ||||||
| 02 | 11:35 | W 22 | 16.09 | Fair | CLR | 6 | -2 | 57% | 2 | 76.33 | 0.0 | ||||||
| 02 | 11:15 | W 20 | 16.09 | Fair | CLR | 5 | -4 | 53% | 1 | 76.33 | 0.0 | ||||||
| 02 | 10:55 | W 22 | 16.09 | Fair | CLR | 5 | -4 | 53% | 1 | 76.33 | 0.0 | ||||||
| 02 | 10:35 | W 20 | 16.09 | Fair | CLR | 5 | -4 | 53% | 1 | 76.33 | 0.0 | ||||||
| 02 | 10:15 | W 20 | 16.09 | Fair | CLR | 5 | -4 | 53% | 1 | 76.35 | 0.0 | ||||||
| 02 | 09:55 | W 19 | 16.09 | Fair | CLR | 5 | -4 | 53% | 2 | 76.35 | 0.0 | ||||||
| 02 | 09:35 | W 17 | 16.09 | Fair | CLR | 4 | -3 | 61% | 1 | 76.35 | 0.0 | ||||||
| 02 | 09:15 | W 19 | 16.09 | Fair | CLR | 4 | -3 | 61% | 0 | 76.35 | 0.0 | ||||||
| 02 | 08:55 | W 19 | 16.09 | Fair | CLR | 4 | -3 | 61% | 0 | 76.35 | 0.0 | ||||||
| 02 | 08:35 | W 19 | 16.09 | Fair | CLR | 3 | -3 | 65% | -1 | 76.35 | 0.0 | ||||||
| 02 | 08:15 | W 17 | 16.09 | Fair | CLR | 2 | -2 | 75% | -2 | 76.35 | 0.0 | ||||||
| 02 | 07:55 | W 15 | 16.09 | Fair | CLR | 2 | -2 | 1.5 | -3.1 | 75% | -2 | 76.35 | 0.0 | ||||
| 02 | 07:35 | W 15 | 16.09 | Fair | CLR | 1 | -2 | 81% | -3 | 76.35 | 0.0 | ||||||
| 02 | 07:15 | W 9 | 16.09 | Fair | CLR | -1 | -3 | 86% | -4 | 76.35 | 0.0 | ||||||
| 02 | 06:55 | W 9 | 16.09 | Fair | CLR | -2 | -3 | 93% | -5 | 76.35 | 0.0 | ||||||
| 02 | 06:35 | SW 9 | 16.09 | Fair | CLR | -2 | -3 | 93% | -5 | 76.35 | 0.0 | ||||||
| 02 | 06:15 | W 9 | 16.09 | Fair | CLR | -2 | -4 | 86% | -5 | 76.33 | 0.0 | ||||||
| 02 | 05:55 | W 9 | 16.09 | Fair | CLR | -2 | -3 | 93% | -5 | 76.33 | 0.0 | ||||||
| 02 | 05:35 | SW 9 | 16.09 | Fair | CLR | -2 | -3 | 93% | -5 | 76.33 | 0.0 | ||||||
| 02 | 05:15 | SW 7 | 16.09 | Fair | CLR | -3 | -4 | 93% | -6 | 76.33 | 0.0 | ||||||
| 02 | 04:55 | W 6 | 16.09 | Fair | CLR | -3 | -3 | 100% | 76.33 | 0.0 | |||||||
| 02 | 04:35 | SW 6 | 16.09 | Fair | CLR | -2 | -3 | 93% | 76.33 | 0.0 | |||||||
| 02 | 04:15 | SW 7 | 16.09 | Fair | CLR | -1 | -3 | 86% | -3 | 76.3 | 0.0 | ||||||
| 02 | 03:55 | SW 7 | 16.09 | Fair | CLR | -2 | -3 | 93% | -4 | 76.33 | 0.0 | ||||||
| 02 | 03:35 | W 7 | 16.09 | Fair | CLR | -2 | -3 | 93% | -4 | 76.3 | 0.0 | ||||||
| 02 | 03:15 | SW 7 | 16.09 | Fair | CLR | -2 | -3 | 93% | -4 | 76.3 | 0.0 | ||||||
| 02 | 02:55 | W 6 | 16.09 | Fair | CLR | -1 | -3 | 86% | 76.33 | 0.0 | |||||||
| 02 | 02:35 | W 6 | 16.09 | Fair | CLR | -1 | -3 | 86% | 76.33 | 0.0 | |||||||
| 02 | 02:15 | NW 6 | 16.09 | Fair | CLR | -1 | -2 | 93% | 76.33 | 0.0 | |||||||
| 02 | 01:55 | SW 4 | 16.09 | Fair | CLR | -1 | -2 | 2.6 | -1 | 93% | 76.33 | 0.0 | |||||
| 02 | 01:35 | NW 4 | 16.09 | Fair | CLR | 1 | -2 | 81% | 76.33 | 0.0 | |||||||
| 02 | 01:15 | N 6 | 16.09 | Fair | CLR | 1 | -2 | 81% | 76.33 | 0.0 | |||||||
| 02 | 00:55 | NW 6 | 16.09 | A Few Clouds | FEW045 | 1 | -2 | 81% | 76.33 | 0.0 | |||||||
| 02 | 00:35 | NW 9 | 16.09 | Fair | CLR | 1 | -1 | 87% | -2 | 76.3 | 0.0 | ||||||
| 02 | 00:15 | W 9 | 16.09 | Fair | CLR | 1 | -2 | 81% | -2 | 76.3 | 0.0 | ||||||
| 01 | 23:55 | W 9 | 16.09 | Fair | CLR | 1 | -2 | 81% | -2 | 76.33 | 0.0 | ||||||
| Date | Time (edt) | Wind (kph) | Vis. (km) | Weather | Sky Cond. | Air | Dwpt | Max. | Min. | Relative Humidity | Wind Chill (°C) | Heat Index (°C) | altimeter (cm) | sea level (mb) | 1 hr | 3 hr | 6 hr |
| 6 hour | |||||||||||||||||
| Temperature (ºC) | Pressure | Precipitation (cm) | |||||||||||||||